Satellite: CO-66
Catalog number: 32791
Epoch time:      11111.65100447
Element set:     958
Inclination:      097.8526 deg
RA of node:       176.4683 deg
Eccentricity:    0.0016280
Arg of perigee:   003.8582 deg
Mean anomaly:     356.2762 deg
Mean motion:   14.82026676 rev/day
Decay rate:       8.21e-06 rev/day^2
Epoch rev:           16113
Checksum:              309

Satellite: RS-30
Catalog number: 32953
Epoch time:      11111.72478821
Element set:     659
Inclination:      082.5037 deg
RA of node:       197.8178 deg
Eccentricity:    0.0019878
Arg of perigee:   147.0076 deg
Mean anomaly:     213.2252 deg
Mean motion:   12.43011998 rev/day
Decay rate:        1.0e-07 rev/day^2
Epoch rev:           13207
Checksum:              293

Satellite: TACSAT-3
Catalog number: 35001
Epoch time:      11110.58464180
Element set:     570
Inclination:      040.4525 deg
RA of node:       162.1405 deg
Eccentricity:    0.0021450
Arg of perigee:   141.1860 deg
Mean anomaly:     219.0502 deg
Mean motion:   15.47148613 rev/day
Decay rate:     1.8641e-04 rev/day^2
Epoch rev:           10815
Checksum:              238

Satellite: PHARMSAT
Catalog number: 35002
Epoch time:      11110.54138145
Element set:     529
Inclination:      040.4700 deg
RA of node:       159.9326 deg
Eccentricity:    0.0023876
Arg of perigee:   147.7962 deg
Mean anomaly:     212.4319 deg
Mean motion:   15.47031453 rev/day
Decay rate:     1.6316e-04 rev/day^2
Epoch rev:           10817
Checksum:              269

Satellite: HAWKSAT1
Catalog number: 35003
Epoch time:      11110.49944008
Element set:     589
Inclination:      040.4546 deg
RA of node:       138.9755 deg
Eccentricity:    0.0021592
Arg of perigee:   172.0230 deg
Mean anomaly:     188.0941 deg
Mean motion:   15.58574021 rev/day
Decay rate:     5.8897e-04 rev/day^2
Epoch rev:           10840
Checksum:              297

Satellite: CP6
Catalog number: 35004
Epoch time:      11111.29478027
Element set:     594
Inclination:      040.4534 deg
RA of node:       128.0970 deg
Eccentricity:    0.0022670
Arg of perigee:   185.2426 deg
Mean anomaly:     174.8300 deg
Mean motion:   15.62598171 rev/day
Decay rate:     7.7048e-04 rev/day^2
Epoch rev:           10858
Checksum:              295

Satellite: METEOR-M
Catalog number: 35865
Epoch time:      11111.71353852
Element set:     300
Inclination:      098.7119 deg
RA of node:       167.5593 deg
Eccentricity:    0.0002007
Arg of perigee:   174.8127 deg
Mean anomaly:     185.3026 deg
Mean motion:   14.21837014 rev/day
Decay rate:       1.76e-06 rev/day^2
Epoch rev:            8256
Checksum:              280

Satellite: RS-38
Catalog number: 35869
Epoch time:      11111.72046957
Element set:     305
Inclination:      098.7089 deg
RA of node:       167.6044 deg
Eccentricity:    0.0004202
Arg of perigee:   184.5055 deg
Mean anomaly:     175.6063 deg
Mean motion:   14.22007428 rev/day
Decay rate:       1.77e-06 rev/day^2
Epoch rev:            8257
Checksum:              305

/EX


_______________________________________________
Via the Keps mailing list courtesy of AMSAT-NA
http://amsat.org/mailman/listinfo/keps

--- ViaMAIL!/WC v1.60d
 * Origin: Chowdanet (401-724-4410) telnet://chowdanet.com  (1:323/120)